K5SJT Weather Reports


Display with metric or nautical units.
time (UTC)temp
F
wind
direction
speed
MPH
gust
MPH
rain 1hr
in
rain 24hr
in
rain mn
in
humidity
%
barometer
mb
20260507060105 58 94 1.0 6.0 0.00 0.00 0.00 76 1013.9
20260507054558 58 97 1.0 6.0 0.00 0.00 0.00 75 1013.9
20260507053058 58 115 1.0 7.0 0.00 0.00 0.00 75 1013.9
20260507051601 59 88 2.0 5.0 0.00 0.00 0.00 75 1013.9
20260507050059 59 84 2.0 6.0 0.00 0.00 0.00 74 1013.6
20260507050005 59 90 1.0 6.0 0.00 0.00 0.00 74 1013.5
20260507044601 60 88 2.0 8.0 0.00 0.00 0.00 73 1013.5
20260507043102 60 109 4.0 10.0 0.00 0.00 0.00 75 1013.3
20260507041558 61 61 1.0 4.0 0.00 0.00 0.00 76 1013.3
20260507040059 61 84 2.0 4.0 0.00 0.00 0.00 76 1012.9
20260507034559 62 89 1.0 4.0 0.00 0.00 0.00 75 1012.4
20260507033059 62 90 1.0 3.0 0.00 0.00 0.00 74 1012.2
20260507031559 63 93 0.0 3.0 0.00 0.00 0.00 73 1012.0
20260507030100 63 119 2.0 5.0 0.00 0.00 0.00 72 1011.8
20260507024623 63 94 1.0 3.0 0.00 0.00 0.00 71 1011.6
20260507023058 64 90 1.0 3.0 0.00 0.00 0.00 70 1011.3
20260507021558 64 86 1.0 4.0 0.00 0.00 0.00 69 1010.9
20260507020111 65 114 1.0 6.0 0.00 0.00 0.00 67 1010.8
20260507014607 67 119 2.0 7.0 0.00 0.00 0.00 64 1010.7
20260507013058 68 90 1.0 4.0 0.00 0.00 0.00 60 1010.6
20260507011558 68 97 2.0 6.0 0.00 0.00 0.00 59 1010.5
20260507010058 69 90 1.0 7.0 0.00 0.00 0.00 58 1010.2
20260507004559 69 95 1.0 7.0 0.00 0.00 0.00 58 1010.1
20260507003059 69 115 2.0 6.0 0.00 0.00 0.00 58 1009.9
20260507001602 70 84 2.0 7.0 0.00 0.00 0.00 57 1009.7
20260507000100 70 86 2.0 7.0 0.00 0.00 0.00 57 1009.8
20260506234605 70 91 1.0 6.0 0.00 0.00 0.00 58 1009.8
20260506233101 70 84 1.0 4.0 0.00 0.00 0.00 57 1009.7
20260506231600 71 73 1.0 6.0 0.00 0.00 0.00 57 1009.6
20260506230100 71 90 0.0 4.0 0.00 0.00 0.00 56 1009.6
20260506224558 71 133 0.0 4.0 0.00 0.00 0.00 57 1009.4
20260506223059 71 123 2.0 6.0 0.00 0.00 0.00 57 1009.3
20260506221558 71 101 2.0 6.0 0.00 0.00 0.00 55 1009.2
20260506220058 71 118 0.0 7.0 0.00 0.00 0.00 55 1009.3
20260506214559 71 110 1.0 6.0 0.00 0.00 0.00 56 1009.3
20260506213131 71 102 2.0 6.0 0.00 0.00 0.00 58 1009.6
20260506211618 71 152 2.0 6.0 0.00 0.00 0.00 57 1009.5
20260506204600 71 100 1.0 7.0 0.00 0.00 0.00 58 1009.6
20260506203102 69 105 2.0 6.0 0.00 0.00 0.00 58 1010.0
20260506201609 68 355 0.0 8.0 0.00 0.00 0.00 61 1010.3
20260506194614 66 90 1.0 7.0 0.00 0.00 0.00 67 1010.6
20260506193101 65 122 2.0 4.0 0.00 0.00 0.00 67 1010.7
20260506191602 63 97 2.0 7.0 0.00 0.00 0.00 70 1010.7
20260506190058 62 90 1.0 7.0 0.00 0.00 0.00 70 1010.9
20260506184608 62 124 2.0 6.0 0.00 0.00 0.00 71 1010.9
20260506183103 62 92 2.0 8.0 0.00 0.00 0.00 69 1011.2
20260506181557 62 134 1.0 7.0 0.00 0.00 0.00 71 1011.4
20260506180057 61 96 2.0 7.0 0.00 0.00 0.00 70 1011.2
20260506174559 62 82 2.0 8.0 0.00 0.00 0.00 69 1011.4
20260506173103 62 91 2.0 7.0 0.00 0.00 0.00 69 1011.5
20260506171558 62 89 2.0 5.0 0.00 0.00 0.00 68 1011.3
20260506170114 62 49 1.0 5.0 0.00 0.00 0.00 69 1011.2
20260506164559 61 40 1.0 4.0 0.00 0.00 0.00 71 1011.3
20260506163110 60 84 2.0 4.0 0.00 0.00 0.00 73 1011.1
20260506161557 58 60 1.0 3.0 0.00 0.00 0.00 74 1011.0
20260506160100 58 85 0.0 4.0 0.00 0.00 0.00 75 1010.8
20260506154605 58 348 1.0 5.0 0.00 0.00 0.00 75 1010.7
20260506153058 57 336 1.0 4.0 0.00 0.00 0.00 76 1010.7
20260506151558 57 331 1.0 6.0 0.00 0.00 0.00 77 1010.4
20260506150100 56 11 2.0 4.0 0.00 0.00 0.00 79 1009.9
20260506144607 56 9 2.0 4.0 0.00 0.00 0.00 82 1010.2
20260506143103 55 351 2.0 6.0 0.00 0.00 0.00 82 1009.9
20260506141557 54 68 0.0 3.0 0.00 0.00 0.00 84 1009.8
20260506140057 54 41 1.0 4.0 0.00 0.00 0.00 84 1009.6
20260506134557 54 38 1.0 4.0 0.00 0.00 0.00 85 1009.5
20260506133056 53 5 1.0 5.0 0.00 0.00 0.00 85 1009.2
20260506131557 54 48 1.0 3.0 0.00 0.00 0.00 85 1008.7
20260506124556 54 84 2.0 8.0 0.00 0.00 0.00 82 1008.9
20260506123057 55 344 1.0 7.0 0.00 0.00 0.00 80 1009.1
20260506121558 56 76 3.0 7.0 0.00 0.00 0.00 79 1007.4
20260506120056 56 61 1.0 7.0 0.00 0.00 0.00 77 1007.5
20260506114557 56 90 0.0 7.0 0.00 0.00 0.00 76 1008.6
20260506113057 57 95 1.0 7.0 0.00 0.00 0.00 75 1007.1
20260506111557 57 67 1.0 4.0 0.00 0.00 0.00 75 1007.2
20260506110057 57 17 1.0 3.0 0.00 0.00 0.00 74 1007.0
20260506104600 57 63 0.0 3.0 0.00 0.00 0.00 75 1006.8
20260506103117 58 74 0.0 5.0 0.00 0.00 0.00 74 1006.0
20260506101557 58 115 1.0 4.0 0.00 0.00 0.00 73 1006.5
20260506100057 58 138 1.0 6.0 0.00 0.00 0.00 72 1006.0
20260506094605 59 84 1.0 6.0 0.00 0.00 0.00 72 1006.0
20260506093058 60 42 1.0 4.0 0.00 0.00 0.00 71 1006.0
20260506091606 60 54 1.0 3.0 0.00 0.00 0.00 71 1005.5
20260506090059 61 39 1.0 4.0 0.00 0.00 0.00 70 1005.5
20260506084615 61 100 0.0 3.0 0.00 0.00 0.00 70 1005.6
20260506083100 62 40 0.0 2.0 0.00 0.00 0.00 70 1005.7
20260506081606 63 109 0.0 2.0 0.00 0.00 0.00 70 1005.5
20260506073101 65 74 1.0 3.0 0.00 0.00 0.00 69 1005.2
20260506071557 65 78 1.0 3.0 0.00 0.00 0.00 68 1005.4
20260506061602 68 79 1.0 4.0 0.00 0.00 0.00 62 1004.5